Back to catalog

O3B FM19

AliveCommunicationsMEO
NORAD 44113·PAYLOAD·🇱🇺 Luxembourg

Launched Apr 4, 2019 from Guiana Space Centre

Loading…

Next Passes (next 24 hours)

TLE

FreshSource: CelesTrak SupGP

Epoch: Sep 13, 2026, 19:59 UTC

1 44113C 19020B   26256.83333333  .00000000  00000+0  00000+0 0  2569
2 44113   0.0772 341.0737 0002970 165.3899 290.7877  5.00116104    14

Track O3B FM19 in real time with AllMySat

Download on the App Store